Other Surface Observations
Issued by NWS

Current Version | Previous Version | Text Only | Print | Product List | Glossary On
Versions: 1 2 3 4 5 6 7 8 9 10 11 12 13 14 15 16 17 18 19 20 21 22 23 24 25 26 27 28 29 30 31 32 33 34 35 36 37 38 39 40 41 42 43 44 45 46 47 48 49 50
675
SXUS52 KTAE 261306
OSOTAE
OSOTAE
North Florida/South Alabama/Southwest Georgia Weather Roundup
National Weather Service Tallahassee Florida
900 AM EDT MON JUN 26 2017

Note: "fair" indicates few or no clouds below 12,000 feet with no
significant weather and/or obstructions to visibility.

!FLZ017-115-028-034-025-261400
...North Florida...

CITY           SKY/WX    TMP DP  RH WIND       PRES   REMARKS
TALLAHASSEE    CLOUDY    75  73  93 NW6       30.09R
APALACHICOLA   CLOUDY    75  75 100 N5        30.09R
PERRY          CLOUDY    80  75  85 CALM      30.08F
CROSS CITY     SUNNY     82  73  74 NE3       30.08R
JACKSONVILLE   PTSUNNY   81  75  82 NW6       30.07R
$$

!FLZ112-006-005-002-011-261400
...Florida Panhandle...

CITY           SKY/WX    TMP DP  RH WIND       PRES   REMARKS
MARIANNA       MOSUNNY   73  64  73 N6        30.10S
BONIFAY        NOT AVBL
PANAMA CITY NW FAIR      73  65  75 N5        30.10R
TYNDALL AFB    SUNNY     74  66  76 NE3       30.10S
TYND DRONE APT PTSUNNY   74  67  80 NE8       30.10S
DE FUNIAK SPR  FAIR      72  62  69 N7        30.13R
EGLIN AFB      MOSUNNY   72  62  72 N6        30.12R
DESTIN         CLOUDY    76  72  87 N6        30.11S
HURLBURT       MOSUNNY   73  59  61 N8        30.11R
CRESTVIEW      SUNNY     74  62  66 NE7       30.14R
PENSACOLA      SUNNY     76  61  59 N6        30.13R
$$

!ALZ063-066-261400
...South Alabama...

CITY           SKY/WX    TMP DP  RH WIND       PRES   REMARKS
DOTHAN         SUNNY     71  64  78 N8        30.15S
OZARK CAIRNS   SUNNY     73  62  68 NE9       30.12R
FT RUCKER HELI SUNNY     71  64  77 N7        30.13R
RUCKER HELI 3  FAIR      71  63  76 N10       30.13R
RUCKER HELI 2  FAIR      73  62  68 N6        30.12R
FLORALA APT    SUNNY     72  62  71 N7        30.15S
ANDALUSIA      SUNNY     74  61  63 N6        30.14R
TROY           SUNNY     69  63  81 VRB3      30.15R
EUFALA         FAIR      72  63  73 VRB3      30.12R
MOBILE         PTSUNNY   73  63  70 NE12      30.15R
$$

!GAZ120>161-261400
...Southwest and South Central Georgia...

CITY           SKY/WX    TMP DP  RH WIND       PRES   REMARKS
THOMASVILLE    FAIR      73  73 100 NW3       30.12R
BAINBRIDGE     PTSUNNY   77  68  73 NE7       30.11S
MOODY AFB      PTSUNNY   76  70  83 CALM      30.08R
VALDOSTA       CLOUDY    76  70  82 CALM      30.09R
MOULTRIE       CLOUDY    72  66  83 N3        30.11R
BLAKELY        SUNNY     73  63  68 CALM      30.12S
ALBANY         SUNNY     75  65  70 NE6       30.13R
TIFTON         FAIR      73  69  89 NE3       30.10S
FITZGERALD     FAIR      74  69  83 CALM      30.13R
CORDELE        FAIR      78  67  69 NE6       30.12S
AMERICUS       FAIR      70  61  73 NE8       30.14S
HOMERVILLE     FAIR      79  73  83 CALM      30.09R
$$

!GMZ750-755-770-775-261400
...Coastal and Buoy Obs...

STATION/POSITION TIME  TEMP    WIND        PRES    VSBY  WAVE
                       AIR SEA DIR/SP/G                  HT/PER
                 (UTC) (F)     (DEG/KT/KT) (MB)    (MI)  (FT/S)
KEATON BEACH     1300   80     100/  7/  7 1018.1R
CEDAR KEY        1200   80     210/  4/  5 1018.6R
C TOWER          1300   80      20/  4/  5 1019.3R
APALACHICOLA BUO 1150   80 83  310/  4/  4 1018.1          1/ 6
PANAMA CITY BUOY 1150   81 82   30/  6/  8 1018.0          1/ 6
MOBILE BUOY      1250   80 83   60/ 10/ 12 1019.0R         2/ 5
ORANGE BCH AL BU 1150   77 81   60/ 14/ 17 1018.9          2/ 4
$$




USA.gov is the U.S. government's official web portal to all federal, state and local government web resources and services.